STARLINK-30150 (57621 NORAD) Tracking and Keplerian Element Data

This shows tracking and keplerian element data for the satellite.

Feedback or suggestion? Click here.




ElementValue
Catalog57621
NameSTARLINK-30150
Epoch Orbit2475
Epoch Day13.13363626
Epoch Year2024
RAAN35.8594
Inclination43.0033
Eccentricity0.0001155
Argument of Perigee251.7894
Mean Anonmoly108.2822
Mean Motion15.02527997
Decay Rate-7.3E-06
L11 57621U 23119V 24013.13363626 -.00000730 00000+0 -38947-4 0 9993
L22 57621 43.0033 35.8594 0001155 251.7894 108.2822 15.02527997 24756



Live tracking and technical data element details for STARLINK-30150 (NORAD 57621). STARLINK-30150 can be tracked NOW for your location showing map with azimuth and elevation plus other details from your city location.







IsCatalogInMostPopularTable: catalog: 57621, numindb: 29
Update: records affected: 1



GetName: 57621 STARLINK-30150

Hit Count: updated at: Thu, 29 Feb 2024 12:31:18 GMT